Flag for Canada Weather past 2 weeks in Prince Rupert, British Columbia, Canada

Now
63 °F

Overcast.


Feels Like: 63 °F
Forecast: 51 / 69 °F
Wind: 12 mph from Northwest

Location: Prince Rupert

Current Time: Jun 30, 2015 at 7:12:40 PM

Latest Report: Jun 30, 2015 at 6:00 PM


Visibility: 9 mi

Pressure: 30.29 "Hg

Humidity: 73%

Dew point: 54 °F

Location of Prince RupertLocation

Historic Weather in Prince Rupert — Graph

°F

Prince Rupert temperature yesterday

Maximum temperature yesterday: 66 °F (at 3:00 PM)
Minimum temperature yesterday: 57 °F (at 4:00 AM)
Average temperature yesterday: 61 °F

Past Weeks' High & Low Weather Summary

 TemperatureHumidityPressure
High72 °F (Jun 28, 6:00 PM)100% (Jun 18, 7:00 AM)30.29 "Hg (Jun 18, 7:00 AM)
Low50 °F (Jun 17, 1:00 AM)46% (Jun 22, 7:00 PM)29.90 "Hg (Jun 25, 9:00 AM)
Average58 °F83%30.07 "Hg
* Reported Jun 15 6:00 PM — Jun 30 6:00 PM, Prince Rupert, Weather by CustomWeather, © 2015

Note: Actual official high and low records may vary slightly from our data, if they occured in-between our weather recording intervals... More about our weather records

Advertising

Prince Rupert weather history for previous 24 hours

 ConditionsComfort  
Time TempWeatherWind HumidityBarometerVisibility
6:00 PM
Tue, Jun 30
63 °FOvercast.12 mph73%30.29 "Hg9 mi
5:00 PM63 °FSunny.9 mph73%30.29 "Hg9 mi
4:00 PM63 °FPassing clouds.9 mph73%30.29 "Hg9 mi
3:00 PM61 °FOvercast.7 mph77%30.28 "Hg9 mi
2:00 PM61 °FOvercast.10 mph77%30.28 "Hg9 mi
1:00 PM61 °FOvercast.9 mph77%30.27 "Hg9 mi
12:00 PM61 °FOvercast.10 mph77%30.26 "Hg9 mi
11:00 AM59 °FOvercast.8 mph82%30.24 "Hg9 mi
10:00 AM59 °FOvercast.10 mph82%30.23 "Hg9 mi
9:00 AM59 °FOvercast.5 mph82%30.22 "Hg9 mi
8:00 AM57 °FOvercast.7 mph88%30.21 "Hg9 mi
7:00 AM57 °FOvercast.6 mph88%30.20 "Hg9 mi
6:00 AM57 °FOvercast.7 mph88%30.20 "Hg9 mi
5:00 AM57 °FOvercast.8 mph88%30.19 "Hg9 mi
4:00 AM57 °FOvercast.6 mph88%30.18 "Hg9 mi
3:00 AM55 °FOvercast.3 mph94%30.16 "Hg9 mi
2:00 AM55 °FMostly cloudy.6 mph94%30.16 "Hg9 mi
1:00 AM55 °FPassing clouds.6 mph94%30.16 "Hg9 mi
12:00 AM55 °FClear.3 mph94%30.15 "Hg9 mi
11:00 PM
Mon, Jun 29
57 °FSunny.3 mph88%30.15 "Hg9 mi
10:00 PM57 °FSunny.5 mph88%30.14 "Hg9 mi
9:00 PM59 °FSunny.9 mph88%30.13 "Hg9 mi
8:00 PM61 °FSunny.13 mph83%30.13 "Hg9 mi
7:00 PM63 °FSunny.10 mph83%30.12 "Hg9 mi
Weather by CustomWeather, © 2015

See weather overviewHow to use our weather pages